Simultaneous Nadir Overpasses (SNOs) Predictions

Prediction of SNOs near US between AQUA and NPP Satellite Orbit:

Table of predicted SNOs near US for the next 10.0 days since TLE Epoch: 2/2/2017
Index Date (AQUA) Time (AQUA) AQUA Lat,Lon Date (NPP) Time (NPP) NPP Lat,Lon Distance(km) Time Diff (sec)
1 02/04/2017 07:18:40 49.93, -75.96 02/04/2017 07:20:26 50.35, -78.24 169.82 106
2 02/04/2017 08:57:33 49.93,-100.67 02/04/2017 09:01:53 50.52,-103.54 214.22 260
3 02/06/2017 18:16:51 49.98, -80.19 02/06/2017 18:10:42 49.71, -81.80 118.83 369
4 02/06/2017 19:55:44 49.97,-104.91 02/06/2017 19:52:10 49.61,-107.13 164.07 214
5 02/06/2017 21:30:54 36.68,-125.00 02/06/2017 21:29:48 36.17,-127.61 240.47 66
6 02/09/2017 09:23:41 22.71,-113.59 02/09/2017 09:16:06 22.83,-114.10 53.16 455
7 02/12/2017 06:30:16 46.32, -65.03 02/12/2017 06:30:39 46.72, -67.09 164.27 23
8 02/12/2017 08:08:09 49.88, -88.33 02/12/2017 08:11:05 50.40, -90.89 191.63 176
9 02/12/2017 09:47:02 49.89,-113.05 02/12/2017 09:52:33 50.51,-116.22 236.04 331




NCC Satellite Simultaneous Nadir Overpasses (SNOs) Prediction Service
